Regional Weather Roundup
Issued by NWS Newport/Morehead, NC

Current Version | Previous Version | Text Only | Print | Product List | Glossary Off
Versions: 1 2 3 4 5 6 7 8 9 10 11 12 13 14 15 16 17 18 19 20 21 22 23 24 25 26 27 28 29 30 31 32 33 34 35 36 37 38 39 40 41 42 43 44 45 46 47 48 49 50
000 ASUS42 KMHX 290413 RWRMHX WEATHER ROUNDUP FOR EASTERN NORTH CAROLINA NATIONAL WEATHER SERVICE NEWPORT/MOREHEAD CITY NC 1200 AM EDT FRI APR 29 2016 NOTE: "FAIR" INDICATES FEW OR NO CLOUDS BELOW 12,000 FEET WITH NO SIGNIFICANT WEATHER AND/OR OBSTRUCTIONS TO VISIBILITY NCZ015>017-031-032-045>047-102-103-290500- NORTH COAST CITY SKY/WX TMP DP RH WIND PRES REMARKS EDENTON CLOUDY 66 66 100 CALM 29.92R ELIZABETH CITY CLOUDY 57 57 100 N9 29.93R FOG KITTY HAWK FOG 58 58 100 N5 29.90R VSB 1/4 MANTEO NOT AVBL $$ NCZ045>047-081-094-103-104-290500- CENTRAL COAST CITY SKY/WX TMP DP RH WIND PRES REMARKS FRISCO CLOUDY 70 68 93 SW12G18 29.91R SWANQUARTER NOT AVBL $$ NCZ095-097-098-100-101-290500- SOUTHERN COAST CITY SKY/WX TMP DP RH WIND PRES REMARKS BEAUFORT MOCLDY 70 68 93 SW14 29.91F CEDAR ISLAND NOT AVBL JACKSONVILLE CLOUDY 70 63 78 SW5 29.90S PINEY ISLAND NOT AVBL WILMINGTON CLOUDY 71 64 78 SW12 29.91S $$ NCZ011>013-027>030-043-044-078>080-089-090>093-098-290500- COASTAL PLAIN CITY SKY/WX TMP DP RH WIND PRES REMARKS AHOSKIE CLOUDY 59 57 94 N9 29.95R CLINTON CLOUDY 69 67 93 S3 29.90F ELIZABETHTOWN PTCLDY 70 64 80 CALM 29.91S GOLDSBORO CLOUDY 68 68 100 E6 29.87F GREENVILLE CLOUDY 66 64 94 S3 29.92S HAVELOCK CLOUDY 71 65 81 SW12 29.92R KENANSVILLE CLOUDY 69 65 88 CALM 29.91F KINSTON LGT RAIN 67 67 99 E5 29.90F NEW BERN CLOUDY 72 64 76 W7 29.93R RICHLANDS CLOUDY 71 64 78 S8 29.91S ROCKY MOUNT CLOUDY 64 64 100 NW3 29.90S WASHINGTON LGT RAIN 67 66 96 SE5 29.90F WHITEVILLE CLEAR 68 65 89 SW7 29.90F $$ AMZ130-135-150-152-154-156-158-170-250-252-270-ANZ085-086-088-633-658-670-290500- MARINE OBSERVATIONS STATION/POSITION TIME TEMP WIND PRES WAVE SWELL AIR SEA DIR/SP/G HT/PER HT/PER (UTC) (F) (DEG/KT/KT) (MB) (FT/S) (FT/S) CHESAPEAKE LIGHT 0400 54 20/ 21/ 23 1013.9 64 E VA BEACH NOT AVBL DUCK 0300 57 67 1012.2 2 E DUCK 0341 58 N/A 3/ 4 OREGON INLET 0300 70 70 1011.2 13E OREGON INLT 0300 60 N/A 4/ 6 3/ 6 HATTERAS CG 0300 71 70 1012.0 DIAMOND BUOY NOT AVBL CAPE LOOKOUT 0400 69 220/ 8/ 12 1012.6 BEAUFORT LAB 0300 69 68 1012.4 30 SE NEW RVR IN 0325 67 N/A 4/ 5 27 SE WRIGHTSVLE 0308 71 69 220/ 10/ 14 1016.0 5 SE WRIGHTSVLE 0308 69 67 230/ 10/ 14 1013.4 225 S CAPE HAT NOT AVBL 41 SE CHARLESTON NOT AVBL $$

USA.gov is the U.S. government's official web portal to all federal, state and local government web resources and services.